User: anonymous   Login
Location: Hepcat Sky Observatory
(29.9800°N, 95.6500°W)
Time: 19:35:43
(UTC-05:00)
Language:

SL-16 Debris - Orbit

View from above orbital plane
View from above orbital plane
View from above satellite
View from above satellite

Ground track
Ground track

The orbit data is extracted from the following two-line orbital elements,

1 26076U 99040E   14294.40241895  .00019851  00000-0  14118-2 0  4464
2 26076 028.5033 295.8436 4674990 302.1518 194.2070 06.23159180251062
Epoch (UTC): 21 October 2014 09:39:28
Eccentricity: 0.4674990
inclination: 28.5033°
perigee height: 264 km
apogee height: 11927 km
right ascension of ascending node: 295.8436°
argument of perigee: 302.1518°
revolutions per day: 6.23159180
mean anomaly at epoch: 194.2070°
orbit number at epoch: 25106

The dashed part of the orbit path shows where the satellite is in the earth's shadow,  

DLR